Wind_Speed
38 37 36 34 32 30 28 26 25 24 22 21 19 16 14 12 11 11 11 11 12 12 11 11 11 12 13 14 14 12 9 9 10 11 11 11 11 13 13 12 11 10
41 39 38 36 34 32 30 28 26 25 24 22 21 18 16 14 13 12 12 11 12 13 13 13 12 12 12 12 13 13 10 9 10 11 12 11 11 11 12 13 13 12
41 41 40 39 37 35 33 31 29 27 26 24 22 21 19 17 15 14 14 13 12 13 15 14 13 13 13 12 13 13 12 11 10 11 12 12 11 11 11 14 13 13
41 42 42 41 39 37 35 34 32 30 28 26 25 23 21 19 17 16 16 16 14 14 15 15 14 14 14 13 14 14 13 12 12 12 12 12 13 12 11 12 13 12
40 40 41 42 41 39 38 37 35 33 31 29 27 25 24 22 20 18 18 18 17 16 16 17 16 15 15 15 15 15 15 14 14 14 13 13 13 13 13 13 12 13
41 41 41 41 41 40 40 39 37 35 33 31 29 28 26 24 22 21 20 19 19 19 18 18 18 17 17 16 16 16 16 16 15 15 14 14 14 14 14 15 14 14
43 42 41 41 40 40 40 39 38 37 35 33 31 30 28 26 25 23 22 21 21 20 20 20 20 20 18 18 18 17 16 17 17 17 16 15 14 15 16 16 16 16
45 43 43 42 41 41 40 39 39 37 36 34 33 32 30 28 27 25 24 23 23 22 21 21 21 21 20 20 19 18 17 18 18 18 18 17 16 16 16 17 17 17
46 45 45 44 43 43 41 40 39 38 37 36 35 33 32 30 29 27 26 26 25 24 22 22 22 21 22 22 20 19 19 19 19 19 19 18 18 17 17 17 17 17
48 47 46 46 45 44 43 42 41 40 39 38 36 35 33 31 30 29 29 28 27 26 24 24 23 23 22 23 22 21 20 20 20 20 20 19 19 18 18 18 18 18
50 49 48 48 47 46 45 43 42 41 40 39 38 36 35 33 31 31 31 31 30 28 27 25 25 24 24 23 22 22 22 21 21 21 20 19 19 18 19 19 19 18
50 51 50 49 48 47 46 44 43 42 41 40 39 37 35 34 33 32 32 32 31 29 28 27 26 25 25 24 23 23 23 22 22 22 21 20 19 19 19 19 20 19
51 51 51 50 49 48 46 45 44 43 42 41 39 38 36 35 34 34 33 33 32 31 29 28 27 27 26 26 25 24 23 23 22 22 22 22 20 19 19 19 19 19
52 52 51 50 49 48 47 46 45 44 42 41 39 38 37 37 35 34 34 33 33 32 30 29 29 28 28 28 27 26 25 24 23 22 23 23 22 21 20 19 19 19
50 51 51 50 49 48 47 47 45 44 42 41 39 38 38 38 37 35 34 34 34 33 32 31 30 30 29 29 29 28 27 25 24 23 23 23 23 22 22 21 20 20
48 50 50 50 50 49 47 47 46 44 43 41 40 38 38 38 38 37 36 35 34 34 34 33 32 32 30 30 29 29 28 27 25 24 24 23 23 23 23 22 21 21
47 48 49 50 50 49 48 47 46 44 43 42 41 39 37 37 39 39 38 37 36 35 35 34 34 32 31 30 29 29 29 28 27 25 24 24 24 23 23 22 21 21
46 47 48 50 49 49 49 47 46 45 44 43 42 40 38 37 39 40 40 38 37 37 36 35 34 32 31 30 30 29 29 29 28 27 26 26 25 24 24 23 22 22
46 46 47 49 49 49 49 47 47 46 45 44 43 41 39 38 38 40 40 39 38 38 37 36 34 32 31 30 30 30 29 29 29 29 28 27 27 26 25 25 24 23
46 46 47 48 48 48 48 48 48 47 46 45 44 42 41 40 39 39 40 40 39 38 37 36 34 32 30 30 30 29 29 29 29 29 30 29 28 28 27 27 26 25
47 47 46 47 47 48 48 48 48 48 47 46 45 44 43 42 40 39 40 40 40 39 37 36 34 32 30 28 28 27 28 30 30 30 30 31 31 30 29 28 27 26
48 48 47 47 47 47 48 49 49 48 48 47 45 45 44 43 42 40 39 40 40 40 38 37 36 33 30 28 26 24 25 28 30 30 30 31 32 31 31 30 29 28
48 49 48 47 47 48 48 49 49 48 48 47 46 45 44 44 43 42 41 40 40 41 40 38 37 35 32 30 28 25 24 25 27 28 29 31 31 31 32 32 31 29
49 49 49 48 48 49 49 49 49 48 48 48 47 46 45 44 43 43 42 41 40 41 41 40 38 36 34 32 30 28 26 24 24 25 27 28 29 30 32 32 32 31
49 48 49 49 49 50 50 49 49 48 48 48 48 47 44 43 43 43 43 42 41 40 41 42 40 37 35 33 32 30 28 26 25 25 25 26 27 27 29 31 33 33
49 49 49 50 49 50 50 49 49 48 47 47 48 48 45 43 41 42 42 42 42 40 40 42 42 40 38 35 33 32 30 29 28 28 27 27 27 26 27 28 30 32
Wind_Direction
212 211 212 212 214 215 213 212 211 214 216 217 220 222 222 222 219 216 213 204 201 203 200 195 190 184 181 182 190 199 190 177 178 175 171 173 169 157 152 164 175 180
214 214 215 215 216 217 218 218 218 218 219 219 221 224 226 227 227 227 225 216 206 203 204 205 199 194 194 190 192 201 200 187 184 185 180 179 180 169 156 163 175 181
216 216 217 217 217 218 220 221 222 223 224 224 224 226 226 227 228 229 230 228 220 207 204 209 207 202 202 199 196 201 203 198 195 195 190 186 187 184 170 164 170 179
217 218 219 219 219 220 221 223 224 225 227 227 227 227 228 229 228 227 228 228 227 217 207 210 212 208 209 208 204 205 204 200 200 203 201 196 193 195 190 177 170 176
219 219 220 220 221 222 222 224 226 226 228 229 229 230 230 230 228 227 226 227 228 224 215 213 214 211 211 213 212 210 208 204 203 207 208 207 204 200 200 199 190 187
221 220 220 221 222 223 223 224 226 227 228 229 229 230 231 229 230 229 228 229 229 228 223 218 216 214 212 214 216 214 211 209 207 209 211 212 212 210 207 210 208 205
222 222 221 222 222 223 224 225 226 227 228 229 229 230 230 229 229 231 231 231 231 230 227 222 219 218 216 214 217 217 214 212 211 212 215 214 214 217 217 216 216 215
222 223 222 223 223 223 224 225 225 226 227 228 229 230 230 229 228 230 231 231 231 231 229 224 220 220 220 218 219 219 217 216 215 214 216 216 216 219 221 223 224 223
222 223 223 223 223 224 225 225 225 226 227 228 229 230 231 230 228 229 230 230 231 231 229 226 222 221 222 223 223 222 220 219 220 219 218 218 220 222 223 226 229 231
221 223 223 223 224 224 225 225 226 227 227 228 229 230 231 231 229 228 229 229 230 230 229 226 223 221 222 225 225 225 224 222 222 224 224 223 222 223 223 226 231 235
221 222 222 223 224 225 225 225 226 227 227 228 229 229 230 231 229 227 227 227 228 230 229 227 224 222 222 224 225 224 224 225 225 226 228 229 228 225 224 226 230 234
221 221 222 223 224 224 225 225 225 226 227 228 228 228 228 228 228 225 224 226 227 228 230 228 226 225 225 226 226 225 225 226 226 227 230 232 234 232 229 229 231 234
221 221 222 223 223 224 224 224 224 224 226 227 227 226 225 225 226 225 224 225 226 227 229 229 228 227 227 228 229 229 230 229 227 228 230 234 237 238 237 234 234 236
221 222 222 223 223 223 223 223 223 222 224 226 227 225 223 223 224 224 224 225 226 227 228 229 229 229 228 229 230 232 234 234 232 230 231 234 238 240 242 241 239 240
221 221 221 221 222 222 222 222 222 222 222 224 226 225 222 221 222 224 224 224 225 226 228 229 229 229 230 230 231 232 235 236 236 235 235 236 239 241 244 246 246 245
220 219 219 219 220 221 221 221 221 221 220 222 225 225 222 218 218 221 223 224 225 225 226 228 229 230 231 232 233 234 236 237 237 238 239 239 241 243 244 246 247 247
219 219 218 218 219 220 221 220 220 219 219 220 223 224 222 218 215 218 222 224 225 226 226 227 228 230 231 232 234 236 237 238 238 239 241 242 243 245 246 248 248 248
219 219 218 218 218 219 220 219 218 218 217 217 220 222 223 219 215 215 220 224 225 227 228 228 229 231 232 232 234 235 236 238 239 240 242 243 245 247 249 250 250 250
220 219 218 218 219 219 219 219 217 217 216 216 217 220 222 221 217 214 217 223 225 226 228 230 231 233 234 233 234 235 236 237 238 240 242 244 246 247 249 251 252 252
221 221 220 219 219 219 219 218 217 216 216 215 215 217 220 221 220 215 215 220 225 228 230 231 233 234 235 235 235 235 236 237 238 240 242 244 246 248 249 251 252 253
221 222 221 220 219 219 218 219 218 216 216 215 214 215 218 221 222 219 215 216 222 227 231 232 235 237 237 237 237 235 236 237 238 239 241 243 245 247 249 251 252 253
222 221 221 220 220 219 218 219 218 217 216 215 213 214 217 220 222 222 218 216 218 224 229 232 235 238 240 240 240 238 236 237 238 239 240 242 244 245 247 250 251 252
222 221 221 221 219 219 219 219 219 218 216 215 213 213 216 218 221 222 222 219 217 220 224 229 233 237 239 241 242 242 238 237 237 238 240 241 243 244 245 247 249 251
222 222 221 221 220 219 219 219 219 219 217 215 213 213 215 218 220 221 223 223 221 219 221 226 230 234 237 240 242 243 241 239 238 238 239 241 242 243 243 244 246 248
221 223 223 222 221 220 220 219 219 219 218 216 214 213 214 217 219 221 222 224 224 223 222 223 227 231 234 237 240 241 242 242 240 239 240 242 243 243 242 242 243 246
221 223 223 223 222 221 220 219 219 219 218 217 215 214 214 216 219 221 221 223 225 225 224 224 225 227 230 233 236 238 239 239 239 240 243 246 247 247 245 244 244 245
Height
1560 1562 1563 1565 1567 1569 1571 1573 1575 1576 1578 1579 1581 1582 1583 1585 1586 1587 1588 1589 1590 1591 1592 1593 1595 1596 1597 1598 1598 1599 1600 1601 1601 1602 1602 1603 1603 1604 1604 1605 1606 1607
1557 1559 1561 1563 1565 1567 1569 1571 1573 1574 1576 1578 1579 1580 1582 1583 1584 1585 1586 1587 1589 1590 1591 1592 1593 1594 1596 1597 1598 1598 1599 1600 1601 1601 1602 1602 1603 1603 1603 1604 1606 1606
1554 1556 1558 1560 1562 1564 1566 1568 1570 1572 1574 1576 1577 1579 1580 1581 1582 1583 1584 1585 1587 1588 1590 1591 1592 1593 1594 1595 1596 1597 1598 1599 1599 1600 1601 1601 1602 1602 1603 1603 1605 1606
1550 1552 1554 1557 1559 1561 1564 1565 1567 1569 1571 1573 1575 1576 1578 1579 1581 1582 1582 1583 1585 1587 1588 1589 1590 1591 1593 1594 1595 1596 1597 1598 1598 1599 1600 1600 1601 1601 1602 1602 1603 1604
1547 1549 1552 1554 1556 1559 1561 1563 1564 1566 1568 1570 1572 1574 1575 1577 1578 1579 1581 1581 1583 1584 1586 1587 1588 1590 1591 1592 1593 1594 1595 1596 1597 1597 1598 1599 1600 1600 1601 1602 1602 1603
1543 1546 1549 1551 1553 1556 1558 1559 1561 1563 1565 1568 1569 1571 1573 1574 1576 1577 1578 1579 1580 1582 1583 1585 1586 1588 1589 1590 1591 1592 1594 1595 1595 1596 1597 1598 1598 1599 1600 1600 1601 1602
1540 1542 1545 1548 1550 1553 1554 1556 1559 1560 1562 1565 1567 1568 1570 1571 1573 1574 1576 1577 1578 1579 1581 1582 1584 1585 1587 1588 1589 1590 1591 1593 1593 1594 1595 1596 1597 1598 1598 1599 1600 1600
1536 1539 1542 1544 1547 1549 1551 1553 1555 1557 1559 1562 1563 1565 1567 1568 1570 1571 1573 1574 1576 1577 1578 1580 1581 1583 1584 1585 1586 1588 1589 1590 1591 1592 1593 1594 1595 1595 1596 1597 1598 1599
1532 1535 1538 1540 1543 1545 1547 1549 1552 1554 1556 1558 1560 1562 1563 1565 1567 1568 1570 1571 1573 1574 1576 1577 1578 1580 1581 1582 1584 1585 1586 1587 1588 1589 1590 1591 1592 1593 1594 1596 1596 1597
1529 1531 1534 1536 1538 1541 1543 1546 1548 1551 1553 1555 1557 1559 1560 1562 1564 1565 1567 1568 1569 1571 1573 1574 1575 1577 1578 1580 1581 1582 1583 1585 1586 1587 1588 1589 1590 1592 1593 1594 1594 1595
1525 1527 1530 1531 1534 1537 1539 1542 1544 1547 1549 1551 1553 1555 1557 1559 1561 1562 1563 1565 1566 1568 1569 1571 1572 1574 1575 1577 1578 1579 1581 1582 1583 1584 1585 1587 1588 1590 1591 1592 1592 1593
1520 1523 1525 1527 1530 1533 1536 1539 1541 1543 1545 1547 1550 1552 1554 1556 1557 1559 1560 1561 1563 1565 1566 1568 1569 1571 1572 1574 1575 1577 1578 1579 1581 1582 1583 1584 1586 1587 1588 1590 1590 1591
1515 1518 1521 1524 1527 1530 1532 1535 1537 1539 1542 1544 1546 1548 1550 1552 1554 1555 1557 1558 1560 1562 1563 1565 1566 1568 1569 1571 1572 1574 1575 1577 1578 1579 1581 1582 1583 1584 1586 1587 1588 1589
1511 1514 1517 1520 1523 1526 1529 1531 1534 1536 1538 1540 1543 1544 1546 1548 1550 1552 1554 1555 1557 1559 1560 1562 1563 1565 1566 1568 1569 1571 1572 1574 1575 1577 1578 1579 1581 1582 1583 1584 1586 1587
1508 1511 1514 1517 1520 1523 1525 1528 1530 1533 1535 1537 1539 1541 1543 1545 1547 1549 1550 1552 1554 1555 1557 1559 1560 1562 1563 1565 1566 1568 1570 1571 1573 1574 1576 1577 1578 1579 1580 1582 1583 1584
1506 1509 1511 1514 1516 1519 1521 1524 1526 1529 1531 1533 1535 1537 1540 1542 1544 1546 1547 1549 1550 1552 1554 1555 1557 1558 1560 1562 1564 1565 1567 1569 1570 1571 1573 1574 1575 1576 1578 1579 1580 1581
1503 1506 1508 1511 1513 1515 1518 1520 1523 1525 1527 1530 1532 1534 1536 1539 1541 1542 1544 1546 1547 1548 1550 1551 1553 1555 1557 1559 1561 1562 1564 1566 1567 1569 1570 1571 1573 1574 1575 1576 1577 1578
1500 1503 1505 1507 1509 1511 1514 1517 1520 1522 1524 1526 1528 1530 1533 1535 1538 1539 1541 1542 1544 1545 1547 1548 1549 1552 1553 1555 1557 1559 1561 1563 1564 1566 1567 1568 1570 1571 1572 1573 1574 1575
1497 1500 1502 1504 1506 1508 1511 1514 1516 1518 1520 1522 1525 1527 1529 1531 1534 1536 1538 1539 1541 1542 1543 1545 1547 1548 1550 1552 1554 1556 1558 1560 1561 1563 1564 1565 1567 1568 1569 1570 1571 1572
1494 1496 1498 1501 1503 1506 1508 1510 1513 1515 1517 1519 1522 1524 1526 1528 1530 1532 1534 1536 1538 1539 1541 1542 1544 1546 1547 1549 1551 1553 1555 1557 1559 1560 1561 1562 1563 1565 1566 1567 1568 1569
1490 1492 1494 1497 1500 1502 1504 1506 1509 1511 1513 1516 1518 1520 1522 1524 1526 1529 1531 1533 1535 1536 1538 1539 1541 1543 1545 1547 1549 1550 1552 1554 1556 1557 1559 1559 1560 1562 1563 1564 1565 1566
1486 1488 1491 1493 1496 1498 1500 1502 1505 1507 1510 1513 1515 1517 1519 1521 1523 1525 1527 1530 1532 1533 1535 1536 1538 1540 1542 1544 1546 1548 1550 1551 1553 1555 1556 1556 1557 1558 1559 1560 1562 1563
1482 1484 1487 1489 1491 1493 1495 1497 1500 1503 1506 1509 1512 1514 1516 1518 1520 1522 1524 1526 1528 1530 1531 1533 1535 1537 1539 1541 1543 1545 1547 1549 1550 1551 1552 1553 1554 1555 1556 1557 1558 1559
1478 1481 1483 1485 1487 1488 1490 1493 1496 1499 1502 1505 1508 1511 1512 1514 1516 1519 1521 1523 1525 1527 1528 1530 1532 1534 1536 1538 1540 1542 1544 1545 1547 1548 1549 1549 1551 1552 1553 1554 1555 1556
1475 1477 1479 1481 1482 1484 1486 1489 1492 1495 1498 1502 1505 1507 1510 1512 1514 1516 1518 1519 1522 1524 1526 1528 1530 1531 1533 1535 1537 1538 1540 1542 1543 1544 1545 1546 1547 1549 1550 1551 1551 1552
1471 1473 1475 1477 1479 1481 1484 1486 1489 1492 1495 1498 1501 1504 1507 1509 1511 1513 1515 1516 1518 1521 1523 1525 1527 1528 1530 1532 1534 1535 1537 1538 1540 1541 1542 1543 1544 1545 1546 1547 1548 1549